Tracking 25195 objects as of 20-Jan-2022
HD Live streaming from Space Station
objects crossing your sky now

LEASAT 1

Track LEASAT 1 now!
LEASAT 1 is classified as:


NORAD ID: 15384
Int'l Code: 1984-113C
Perigee: 36,168.2 km
Apogee: 36,401.2 km
Inclination: 12.9 °
Period: 1,461.3 minutes
Semi major axis: 42655 km
RCS: 16.1907 m2 (large)
Launch date: November 8, 1984
Source: United States (US)
Launch site: AIR FORCE EASTERN TEST RANGE (AFETR)
aabbcc
Your satellite tracking list
Your tracking list is empty




NASA's NSSDC Master Catalog

Two Line Element Set (TLE):
1 15384U 84113C   22019.73516385 -.00000192  00000-0  00000-0 0  9993
2 15384  12.9250 347.4905 0027309 264.2882  93.4687  0.98545498108050
Source of the keplerian elements: AFSPC